This is the latest recevied weather packets stored in our database for station/object OM6ACB-6. If no packets are shown the sender has not sent any weather packets the latest 1 day(s).
| Time | Temp. | Humidity | Pressure | Rain* | Wind** | Luminosity | Snow |
|---|---|---|---|---|---|---|---|
| 1836274437 | 11.67° C | 76% | 1029.5 hPa | 0 mm | 0 m/s | - | - |
| 1836274287 | 11.67° C | 76% | 1029.5 hPa | 0 mm | 0 m/s | - | - |
| 1778034918 | 13.33° C | 26% | 1012 hPa | 0 mm | 1.79 m/s, 225° | - | - |
| 1778034318 | 13.33° C | 26% | 1011.9 hPa | 0 mm | 1.79 m/s, 225° | - | - |
| 1778033717 | 13.33° C | 26% | 1012 hPa | 0 mm | 1.79 m/s, 225° | - | - |
| 1778033117 | 13.33° C | 26% | 1011.9 hPa | 0 mm | 1.79 m/s, 225° | - | - |
| 1778032517 | 13.33° C | 26% | 1011.9 hPa | 0 mm | 1.79 m/s, 225° | - | - |
| 1778031916 | 13.33° C | 26% | 1011.9 hPa | 0 mm | 0.45 m/s, 140° | - | - |
| 1778031316 | 13.33° C | 26% | 1011.8 hPa | 0 mm | 1.34 m/s, 270° | - | - |
| 1778030716 | 13.89° C | 26% | 1011.9 hPa | 0 mm | 1.34 m/s, 270° | - | - |
| 1778030128 | 13.89° C | 26% | 1011.9 hPa | 0 mm | 1.34 m/s, 270° | - | - |
| 1778029515 | 13.89° C | 26% | 1011.8 hPa | 0 mm | 1.34 m/s, 270° | - | - |
| 1778028915 | 13.89° C | 26% | 1011.9 hPa | 0 mm | 1.34 m/s, 270° | - | - |
| 1778028315 | 13.89° C | 26% | 1011.9 hPa | 0 mm | 1.34 m/s, 270° | - | - |
| 1778027714 | 13.89° C | 26% | 1012 hPa | 0 mm | 1.34 m/s, 265° | - | - |
| 1778027114 | 14.44° C | 25% | 1012 hPa | 0 mm | 1.79 m/s, 135° | - | - |
| 1778026514 | 14.44° C | 25% | 1012 hPa | 0 mm | 1.79 m/s, 135° | - | - |
| 1778025913 | 14.44° C | 25% | 1012 hPa | 0 mm | 1.34 m/s, 211° | - | - |
| 1778025313 | 14.44° C | 25% | 1012 hPa | 0 mm | 0.89 m/s, 270° | - | - |
| 1778024713 | 14.44° C | 25% | 1012 hPa | 0 mm | 0.89 m/s, 270° | - | - |
| 1778024113 | 17.78° C | 24% | 1012.6 hPa | 0 mm | 0.89 m/s, 270° | - | - |
| 1778023512 | 17.78° C | 24% | 1012.6 hPa | 0 mm | 0.89 m/s, 270° | - | - |
| 1778022912 | 17.78° C | 24% | 1012.7 hPa | 0 mm | 0 m/s | - | - |
| 1778022314 | 17.78° C | 24% | 1012.7 hPa | 0 mm | 0 m/s | - | - |
| 1778021711 | 17.78° C | 24% | 1012.7 hPa | 0 mm | 0 m/s | - | - |
* Rain latest hour (hover to see other rain measurements)
** Current wind speed in m/s (hover to see current wind gust speed)